Regional Weather Roundup
Issued by NWS

Home | Current Version | Previous Version | Text Only | Print | Product List | Glossary On
Versions: 1 2 3 4 5 6 7 8 9 10 11 12 13 14 15 16 17 18 19 20 21 22 23 24 25 26 27 28 29 30 31 32 33 34 35 36 37 38 39 40 41 42 43 44 45 46 47 48 49 50
000
ASUS45 KPSR 270700
RWRAZ

ARIZONA REGIONAL HOURLY WEATHER ROUNDUP
NATIONAL WEATHER SERVICE PHOENIX AZ
1200 AM MST FRI MAR 27 2015

NOTE: FAIR INDICATES FEW OR NO CLOUDS BELOW 12,000 FEET WITH NO
SIGNIFICANT WEATHER AND/OR OBSTRUCTIONS TO VISIBILITY.

AZZ001>003-036-270800-
NORTHWEST ARIZONA

CITY           SKY/WX    TMP DP  RH WIND       PRES   REMARKS
KINGMAN        CLEAR     48  23  37 SE9       30.23S
$$

AZZ004>008-015-016-018-270800-
NORTH CENTRAL ARIZONA

CITY           SKY/WX    TMP DP  RH WIND       PRES   REMARKS
GRAND CANYON   PTCLDY    28  17  63 E3        30.38S
WILLIAMS       CLEAR     39  18  41 S12       30.43S WCI  32
PRESCOTT       CLEAR     46  24  42 S5        30.29R
FLAGSTAFF      NOT AVBL
PAYSON         CLEAR     54  14  20 NE5       30.30S
PAGE           CLEAR     53  21  28 SE3       30.28R
$$

AZZ009>014-017-270800-
NORTHEAST ARIZONA

CITY           SKY/WX    TMP DP  RH WIND       PRES   REMARKS
WINSLOW        NOT AVBL
SAINT JOHNS    CLEAR     44  13  28 S8        30.31R
WINDOW ROCK    CLEAR     31  11  43 CALM      30.36S
SHOW LOW       CLEAR     37   9  30 E3        30.37S
$$

AZZ023-270800-
GREATER PHOENIX AREA

CITY           SKY/WX    TMP DP  RH WIND       PRES   REMARKS
PHOENIX        CLEAR     73  28  18 CALM      30.06R
DEER VALLEY    CLEAR     66  32  28 CALM      30.07F
SCOTTSDALE     CLEAR     69  33  26 CALM      30.10R
MESA-GATEWAY   CLEAR     59  30  33 E7        30.10S
$$

AZZ027-028-270800-
SOUTHWEST MARICOPA COUNTY AND PINAL COUNTY

CITY           SKY/WX    TMP DP  RH WIND       PRES   REMARKS
CASA GRANDE    CLEAR     66  23  19 E5        30.07S
$$

AZZ503-504-507>509-270800-
SOUTHEAST ARIZONA

CITY           SKY/WX    TMP DP  RH WIND       PRES   REMARKS
TUCSON         CLEAR     61  26  26 CALM      30.16R
NOGALES        CLEAR     56  24  29 S6        30.20R
SAFFORD        CLEAR     54  24  31 S5        30.18S
$$

AZZ020-021-025-026-031-270800-
SOUTHWEST ARIZONA

CITY           SKY/WX    TMP DP  RH WIND       PRES   REMARKS
YUMA           NOT AVBL
$$

CAZ031-033-041-043-047-048-061-270800-
SOUTHERN CALIFORNIA

CITY           SKY/WX    TMP DP  RH WIND       PRES   REMARKS
DOWNTOWN L.A.  CLEAR     70  50  49 CALM      30.03S
L.A. AIRPORT   CLEAR     65  51  60 E5        30.04S
SAN DIEGO      CLEAR     71  48  43 CALM      30.06S
BURBANK        CLEAR     72  33  24 NW3       30.05S
ONTARIO        CLEAR     72  35  25 E3        30.07S
RIVERSIDE      CLEAR     70  37  29 NE5       30.07S
PALM SPRINGS   CLEAR     76  27  16 N5        30.08R
EL CENTRO NAS  CLEAR     67  27  22 W10       30.02S
IMPERIAL       CLEAR     67  33  28 SW6       30.02S
BLYTHE         CLEAR     67  27  22 NE5       30.05S
$$

NVZ020-UTZ003-270800-
SOUTHERN NEVADA-UTAH

CITY           SKY/WX    TMP DP  RH WIND       PRES   REMARKS
LAS VEGAS      NOT AVBL
SALT LAKE CITY CLEAR     45  29  53 SE7       30.34S
$$

NMZ009-TXZ055-270800-
NEW MEXICO-WEST TEXAS

CITY           SKY/WX    TMP DP  RH WIND       PRES   REMARKS
ALBUQUERQUE    PTCLDY    49  19  30 E5        30.27F
EL PASO        CLEAR     56  28  34 S3        30.25R
$$


........................KEY........................
SKY/WX - SKY CONDITION/WEATHER
TMP    - TEMPERATURE IN FAHRENHEIT
DP     - DEW POINT IN FAHRENHEIT
RH     - RELATIVE HUMIDITY IN PERCENT
WIND   - DIRECTION AND SPEED IN MILES PER HOUR (MPH)
VRB    - VARIABLE WIND DIRECTION
PRES   - MEAN SEA LEVEL PRESSURE IN INCHES OF MERCURY
         F - FALLING PRESSURE   R - RISING PRESSURE
         S - STEADY PRESSURE
VSB    - VISIBILITY IN MILES
HX     - HEAT INDEX IN FAHRENHEIT
WCI    - WIND CHILL INDEX IN FAHRENHEIT
TC     - TEMPERATURE IN CELSIUS WHICH IS ALSO KNOWN AS
         TEMPERATURE IN CENTIGRADE
AFB    - AIR FORCE BASE
         LUKE AFB IS LUKE AIR FORCE BASE
         DAVIS-MONTHAN IS DAVIS-MONTHAN AIR FORCE BASE
NAS    - NAVAL AIR STATION
         EL CENTRO NAS IS EL CENTRO NAVAL AIR STATION
N/A    - NOT AVAILABLE



USA.gov is the U.S. government's official web portal to all federal, state and local government web resources and services.